Location: Rioux
(40.7500°S, 175.7500°E)
Time: 09:48:15
(UTC+00:00)

Lacrosse 4 Rocket - Pass Details

Date: 12 June 2024
Orbit: 525 x 593 km, 68.0° (Epoch: 20 July)

Event Time Altitude Azimuth Distance (km) Brightness Sun altitude
Exits shadow 17:28:07 14° 170° (S) 1,651 3.7 -23.9°
Maximum altitude 17:30:27 20° 130° (SE) 1,317 3.6 -23.4°
Drops below altitude 10° 17:33:34 10° 80° (E) 1,835 5.1 -22.9°
Sets 17:36:11 0° 63° (ENE) 2,707 6.2 -22.4°
